Wind_Speed
8 7 5 4 3 3 4 5 5 4 1 2 3 5 6 6 7 7 8 9 11 12 13 14 14 15 18 19 20 20 22 22 20 20 21 22 22 23 23 23 22 23 23 23 23 24 24 25 26 27 27 27 27 27 27 26 26 26 25 24 24 23 22 22 22 22 22 23 23 24 25 25 26 26 26 27 27 28 29 30 31 31 31 32 33 33
9 7 6 5 3 4 5 4 3 1 3 4 4 5 6 7 6 6 8 11 14 15 15 15 15 16 18 18 19 21 23 23 22 22 23 23 23 23 23 22 22 23 23 22 23 24 25 27 28 28 28 28 28 28 28 27 27 26 25 25 24 24 24 24 24 24 25 25 25 25 26 26 26 27 27 28 29 29 31 32 32 32 33 34 34 34
10 10 8 5 1 3 4 2 2 1 4 3 4 6 7 7 6 7 11 15 16 15 14 15 15 15 16 17 19 21 23 23 23 23 24 24 23 22 22 21 22 23 22 23 25 26 27 28 29 29 30 30 30 29 29 29 28 28 27 27 27 26 26 26 26 26 26 26 26 26 26 27 27 28 28 29 30 31 32 32 33 33 34 34 34 34
11 12 10 7 4 4 2 1 2 1 4 4 6 7 7 8 8 9 13 14 14 14 13 14 14 14 15 17 18 19 22 22 22 22 23 24 23 22 21 22 22 22 23 24 26 26 28 29 30 30 31 31 31 30 30 30 30 29 29 28 28 27 27 27 27 27 27 27 27 28 28 28 29 29 29 30 30 31 32 32 33 33 34 33 34 34
13 13 11 10 7 5 2 2 1 2 4 4 6 8 8 8 9 9 11 12 12 12 12 13 13 13 15 16 17 18 20 20 20 21 22 23 22 22 22 22 22 22 23 24 25 26 28 29 29 30 31 31 31 30 30 29 29 29 28 28 28 27 27 27 27 27 28 28 29 29 29 30 30 30 30 31 31 32 32 32 32 32 32 33 34 34
17 15 13 12 10 7 4 3 3 4 4 3 5 6 6 5 7 8 10 11 11 11 12 13 13 13 14 15 15 16 18 18 20 21 20 20 21 23 24 23 21 21 22 23 24 27 28 28 29 29 30 30 29 29 28 28 28 28 27 27 27 27 27 27 27 28 28 29 30 30 30 30 30 30 31 31 32 32 31 31 31 31 32 33 33 34
20 17 15 11 10 9 5 3 5 6 5 4 4 4 4 4 6 9 10 10 10 10 11 11 12 13 13 13 13 14 16 17 18 18 16 16 18 21 22 22 21 20 21 22 24 26 27 27 28 28 28 28 28 28 27 27 27 27 27 27 27 27 27 27 27 27 28 28 29 29 29 30 30 30 30 31 31 30 30 31 31 32 32 33 33 34
22 19 16 11 9 10 7 5 6 6 7 7 7 6 5 6 7 9 11 10 9 9 10 10 11 12 12 13 12 13 15 15 14 14 14 14 15 17 19 20 20 20 21 22 23 25 26 27 28 28 28 28 28 28 27 27 27 27 27 27 26 27 26 26 26 27 27 27 28 28 29 29 29 29 29 29 29 29 30 31 32 32 32 33 33 34
24 21 18 13 11 12 8 8 8 7 8 8 9 10 9 9 10 11 11 9 8 9 10 10 10 11 11 11 11 11 13 13 12 13 13 13 13 14 17 20 20 20 21 22 23 25 26 27 28 28 28 28 29 29 29 28 27 27 27 27 26 26 26 26 26 26 26 27 27 27 28 29 29 29 29 29 30 31 31 32 32 32 32 33 33 34
25 22 18 13 13 12 9 10 10 8 8 6 7 11 12 13 12 12 11 9 7 7 8 9 9 10 10 10 10 11 13 14 13 13 13 12 11 12 17 19 19 20 22 23 24 26 28 28 28 28 28 28 29 29 29 29 28 27 27 26 26 26 25 25 25 26 26 26 27 27 27 28 28 29 29 30 31 32 32 32 32 32 33 34 34 35
24 21 17 13 13 12 11 11 11 10 8 5 6 11 15 15 12 11 10 9 7 5 7 8 9 9 8 8 10 11 13 15 15 13 11 10 10 12 16 17 18 20 22 23 26 27 28 27 27 27 27 27 26 26 27 27 28 28 27 26 25 25 25 25 26 26 26 26 27 27 27 28 28 29 30 30 31 31 32 32 33 33 34 34 35 36
22 20 18 15 14 13 13 11 10 12 11 7 6 10 15 17 13 11 10 8 8 7 7 8 8 8 8 9 11 12 13 14 12 11 10 9 10 13 15 16 17 19 21 23 25 25 24 23 24 23 23 22 22 22 22 23 25 26 26 25 25 24 24 25 25 26 26 27 27 27 28 28 29 29 30 30 31 31 32 32 33 33 34 34 35 36
20 20 19 17 17 16 14 11 11 14 13 9 7 9 15 18 15 12 10 7 8 8 8 8 7 7 8 9 11 12 12 11 10 11 11 10 10 13 15 16 16 17 19 20 20 18 18 18 19 19 18 18 18 18 19 20 21 22 23 24 24 24 24 24 24 25 25 26 26 27 27 28 29 29 30 31 32 32 32 33 33 34 34 35 35 36
18 18 18 18 19 17 15 12 12 13 12 10 9 10 16 18 15 12 9 6 7 8 7 7 6 5 7 10 10 11 11 11 10 10 10 10 11 13 14 15 15 15 16 16 14 13 14 15 15 15 15 14 15 16 17 18 19 20 20 21 22 23 24 24 24 25 25 25 26 26 27 28 28 29 30 31 32 33 33 34 34 35 35 36 36 37
18 18 18 19 19 18 15 13 13 13 11 11 12 13 17 18 16 13 11 7 7 7 6 6 5 5 9 11 12 11 11 10 9 9 9 11 12 12 13 14 13 13 14 14 13 14 14 14 14 13 13 13 14 14 15 17 19 19 19 19 20 22 24 25 25 25 26 26 27 28 28 28 28 29 30 31 32 33 34 34 35 35 36 37 37 38
19 18 18 19 19 18 15 14 15 15 12 13 16 17 19 18 14 12 10 8 7 7 7 7 5 7 12 14 14 13 11 10 9 8 10 12 13 13 13 13 13 13 13 12 12 14 14 13 13 12 13 13 13 13 14 16 18 19 19 20 19 20 22 24 25 26 27 27 28 29 29 29 29 30 30 31 32 33 34 35 35 36 36 37 37 38
20 19 19 21 21 18 15 15 18 18 16 15 17 18 18 16 12 9 8 6 7 8 9 8 5 9 15 15 14 13 10 9 9 9 11 13 14 13 12 13 13 12 11 11 11 12 12 11 11 11 13 14 15 14 13 14 16 18 19 20 20 20 21 23 25 26 27 28 29 30 30 31 31 31 31 32 32 32 33 34 35 36 37 38 39 39
23 22 22 23 22 18 17 19 23 22 19 18 17 17 17 15 13 11 9 7 8 10 10 9 7 11 15 16 14 12 10 9 9 9 12 14 14 13 13 13 13 10 10 10 10 11 10 10 10 11 13 14 14 15 14 14 16 17 18 20 20 20 22 24 25 26 27 29 29 30 31 32 33 34 34 34 33 33 33 34 35 36 37 38 39 41
25 26 26 25 24 20 19 23 25 24 22 20 18 17 17 15 14 14 12 10 10 12 12 11 10 12 15 15 14 12 11 11 11 11 12 12 13 12 12 13 11 8 8 9 8 9 9 9 10 11 13 14 15 14 14 14 15 16 18 21 21 20 22 24 26 27 29 30 31 31 31 33 35 36 37 36 35 34 35 35 36 37 38 39 41 42
27 28 29 28 27 24 23 26 27 27 25 21 18 17 16 16 15 14 13 11 12 12 13 14 12 13 15 15 14 14 14 14 14 13 13 12 11 11 11 12 10 8 7 7 7 7 8 9 10 11 13 15 16 15 14 14 14 15 17 20 22 21 22 24 26 28 30 31 32 33 34 34 35 37 39 38 37 36 36 37 38 39 40 41 43 44
29 30 31 31 30 27 27 28 27 28 27 23 20 16 15 16 17 15 13 12 13 12 13 15 14 14 17 16 15 16 16 16 16 16 15 13 11 10 10 11 11 10 8 7 7 7 7 8 8 10 12 13 14 15 15 14 15 16 15 18 21 23 24 25 27 28 29 31 33 35 36 35 35 38 39 39 38 37 37 38 39 39 40 42 43 44
32 31 32 33 33 31 30 30 29 29 27 25 22 19 17 17 17 17 15 14 15 15 14 16 15 16 19 18 16 16 16 16 17 16 16 15 13 10 9 9 10 10 8 6 5 5 5 6 7 8 10 10 12 13 14 15 16 16 16 18 20 23 25 27 27 28 29 31 33 35 36 35 35 37 39 39 38 38 38 39 39 40 41 42 43 44
34 33 33 33 34 34 33 32 32 31 28 26 24 21 19 19 19 19 18 17 17 17 16 16 17 19 22 20 17 16 16 16 16 15 16 16 15 12 10 8 8 8 7 4 1 1 4 8 9 8 8 9 10 12 13 15 16 17 17 19 22 23 25 26 28 30 31 33 34 35 36 35 35 37 40 40 39 39 39 40 41 42 43 43 44 46
35 34 33 32 33 34 35 36 35 33 31 29 26 23 21 21 21 21 20 19 18 18 18 18 19 22 24 22 18 16 16 15 15 14 15 15 15 14 13 12 9 7 6 4 3 5 6 7 9 9 9 9 10 11 13 15 16 17 19 20 23 24 25 26 28 30 33 34 35 36 37 36 36 38 40 41 40 40 40 41 42 43 44 45 47 49
35 34 34 34 33 34 35 35 34 33 33 31 28 25 24 24 23 22 21 20 19 19 18 19 21 23 24 23 20 18 17 16 15 14 14 14 14 15 15 14 12 9 7 6 6 6 6 6 8 10 10 10 10 11 14 16 16 16 18 20 22 24 25 25 27 29 31 33 34 35 37 37 37 38 41 41 41 41 41 42 43 45 46 47 49 51
38 37 36 35 35 35 36 35 34 34 34 34 32 29 27 26 25 23 22 21 21 21 19 19 22 24 24 23 21 19 19 17 15 14 14 13 13 14 15 15 14 13 11 10 9 8 8 8 9 11 12 13 13 13 15 17 17 17 19 21 23 25 25 26 28 29 31 33 34 35 37 37 38 39 42 43 42 41 42 43 45 47 48 50 51 52
41 40 38 38 38 38 40 39 37 36 36 36 34 32 30 28 27 25 24 23 24 23 21 20 22 24 25 25 23 21 20 19 17 16 14 13 13 14 15 15 15 15 14 13 12 11 11 11 12 13 14 15 16 17 18 19 19 20 22 24 26 27 28 30 31 32 34 35 36 37 38 39 40 41 43 44 43 43 43 44 46 48 50 51 52 54
45 42 40 39 39 40 41 40 38 37 37 36 35 33 32 31 31 29 28 28 27 25 23 22 21 22 25 26 25 22 21 21 19 16 14 13 13 14 15 15 16 16 16 15 14 14 14 14 14 15 16 16 17 19 21 22 22 24 26 27 28 29 31 32 34 35 36 38 38 38 39 40 41 42 44 46 45 44 45 46 48 50 51 52 54 58
47 44 42 41 40 41 41 40 39 39 39 39 37 35 34 34 34 33 32 31 29 26 25 23 22 22 23 25 26 23 21 22 21 18 16 15 14 15 15 15 16 17 17 17 17 17 16 15 15 17 18 18 19 20 22 23 24 25 27 29 29 30 31 32 34 36 37 38 39 39 40 42 43 44 46 47 46 46 47 48 49 50 52 54 57 60
48 44 43 43 42 42 41 41 41 40 40 40 39 38 37 36 36 35 34 32 30 28 26 24 23 23 22 24 26 24 22 22 22 20 19 17 16 16 16 16 16 17 17 18 19 19 18 16 17 18 18 19 20 21 22 24 24 25 27 29 30 30 31 32 34 35 36 38 39 40 41 43 44 45 47 47 47 47 48 49 50 51 53 56 59 62
51 45 45 46 45 44 43 42 41 40 39 38 37 39 39 38 37 36 34 32 30 30 29 26 24 24 23 24 26 25 23 23 23 22 21 20 18 18 18 18 17 17 18 19 20 20 19 18 19 19 19 20 21 22 23 24 26 27 28 30 30 31 32 33 34 35 36 38 39 40 41 43 45 46 47 47 46 46 47 49 51 53 55 58 61 64
55 49 48 49 47 45 44 42 40 38 37 37 37 38 39 40 38 36 34 32 30 30 30 28 26 25 24 23 24 24 24 24 23 22 21 20 18 19 19 20 18 17 17 19 21 21 20 20 20 19 19 20 22 23 24 25 27 29 30 30 31 32 33 34 35 36 38 39 40 40 42 43 45 46 46 45 46 46 48 51 53 55 57 59 62 66
56 53 52 51 48 46 45 42 40 40 40 39 38 38 39 39 36 35 35 33 31 29 29 28 27 25 23 23 23 23 23 23 23 22 20 19 19 20 21 21 19 17 17 19 21 22 22 22 22 21 20 21 22 23 24 25 27 29 30 31 32 33 34 36 37 38 39 40 41 42 43 44 46 46 46 46 47 48 51 53 55 56 56 58 62 66
56 55 54 52 50 48 47 45 44 43 43 42 40 40 39 37 36 36 35 33 30 29 27 27 26 25 24 24 23 23 23 24 24 23 21 21 22 23 23 22 20 18 19 21 22 22 23 23 24 24 23 23 24 24 25 26 28 29 30 32 34 35 36 37 38 39 40 41 42 43 44 46 47 47 47 48 49 51 53 55 56 56 57 59 63 68
58 57 55 53 52 51 49 48 47 46 44 43 42 40 38 36 36 36 34 30 28 26 25 25 24 23 23 24 24 24 24 24 24 23 23 24 25 26 26 24 21 21 23 23 23 23 26 27 27 27 27 26 26 26 27 29 31 32 32 34 35 36 37 38 39 40 42 42 43 45 46 47 48 48 48 49 51 52 55 57 58 58 59 61 66 71
61 59 56 55 55 53 51 50 49 47 46 46 44 42 39 38 37 36 34 32 30 28 27 24 23 23 24 24 25 25 25 25 25 24 23 22 24 27 27 25 23 24 25 25 25 26 28 29 29 29 29 28 28 29 30 32 33 34 35 36 37 37 38 39 40 42 43 44 45 47 48 48 48 48 49 51 52 54 57 59 60 61 61 64 69 73
64 62 58 57 58 56 54 52 51 50 50 50 48 45 43 43 42 40 38 36 34 33 30 27 27 28 26 25 24 24 25 27 26 25 24 23 25 27 27 25 25 25 26 26 27 28 29 30 30 30 30 30 31 32 33 34 35 36 37 38 38 38 39 40 41 42 43 45 46 47 48 48 48 49 50 52 54 56 59 61 62 63 63 66 71 76
66 64 61 60 60 59 57 55 54 54 54 53 51 48 47 47 46 43 41 38 36 35 33 32 31 29 26 25 24 25 26 27 26 26 26 26 27 28 27 26 26 26 27 28 29 30 31 31 32 32 32 33 34 35 35 36 37 38 39 39 39 39 39 40 41 43 44 45 46 47 47 47 48 49 51 53 56 58 61 63 64 65 66 69 73 78
66 65 64 62 62 63 61 58 57 56 56 55 52 49 48 49 47 43 42 41 38 37 36 35 32 28 26 26 26 27 28 27 26 26 27 28 29 29 28 28 28 28 30 30 31 32 33 34 34 34 35 36 38 38 37 38 40 40 40 40 39 39 39 40 41 43 44 45 46 46 46 47 48 50 53 55 57 60 62 64 66 67 68 71 76 80
68 66 66 66 65 66 65 62 60 58 56 55 53 50 49 48 47 45 45 44 40 39 38 36 32 29 29 29 28 28 29 29 28 27 26 28 30 30 29 29 30 30 31 31 33 34 35 35 36 36 38 39 40 39 39 41 42 41 40 39 39 40 40 41 42 44 45 45 46 47 47 48 50 52 55 57 59 62 64 65 67 68 70 73 78 81
71 69 70 70 69 69 68 67 64 61 58 56 54 52 50 49 48 46 45 43 41 40 39 37 33 31 30 28 28 29 30 29 28 26 27 29 30 29 29 30 31 32 32 33 34 35 35 35 37 38 39 40 40 40 41 42 41 40 39 39 40 42 43 43 44 45 46 46 47 48 49 50 52 54 56 58 61 63 65 66 68 70 72 76 79 82
76 73 73 73 71 70 70 69 66 63 61 59 57 55 53 51 49 46 43 41 40 39 39 37 34 31 30 29 29 29 29 28 27 27 28 29 28 28 30 31 32 32 32 33 34 35 35 37 38 39 38 38 39 40 41 40 40 39 40 41 43 44 45 45 46 47 47 48 49 50 51 52 54 56 58 60 63 65 66 68 70 72 75 78 81 83
80 78 76 75 73 70 69 70 68 63 62 61 60 58 56 53 50 47 44 42 41 39 37 35 32 30 30 30 29 28 27 27 26 27 28 28 28 29 30 31 32 32 33 34 35 36 37 38 38 37 36 36 38 39 39 39 39 41 42 43 44 45 46 47 48 49 49 50 50 51 52 53 55 57 59 62 64 66 68 70 71 73 77 80 82 84
83 81 80 78 75 71 68 68 66 62 62 64 62 59 57 53 51 50 48 45 43 41 37 34 32 30 29 29 27 25 24 24 24 25 26 27 28 28 29 30 31 32 32 34 35 36 37 36 35 34 34 35 37 38 38 39 41 43 44 45 46 47 47 48 49 50 50 50 51 53 53 54 56 58 61 64 66 69 71 71 72 75 79 81 84 86
87 85 84 82 79 75 70 66 63 62 64 66 65 61 58 55 54 52 50 47 45 42 39 35 33 31 29 27 25 22 21 22 24 24 25 27 28 28 29 30 31 31 32 33 34 35 34 33 33 33 34 36 37 39 40 41 43 45 45 46 47 48 48 49 49 50 50 51 53 54 55 55 57 60 63 66 69 71 72 72 74 77 80 83 85 88
90 89 88 86 82 78 73 68 64 63 65 66 66 63 60 59 57 55 53 50 47 43 40 37 36 34 31 29 26 22 20 22 25 25 26 28 31 31 31 30 31 32 32 33 34 35 34 34 35 36 37 38 40 41 41 42 44 46 46 47 48 48 48 49 50 50 51 52 54 55 55 56 58 62 65 68 71 73 73 74 76 79 81 83 86 89
93 91 90 88 85 81 77 72 68 66 67 67 66 64 62 61 60 57 55 53 50 45 42 40 39 36 33 32 30 26 23 25 27 29 32 33 35 36 36 35 36 36 36 36 37 37 37 38 38 39 40 41 42 42 42 44 46 47 47 48 48 48 49 51 51 52 53 54 55 55 55 57 60 64 67 71 73 74 75 77 79 81 83 85 88 91
95 93 91 90 87 83 80 76 73 70 70 69 68 65 63 62 61 59 57 55 52 48 44 43 41 38 36 34 32 28 27 27 29 33 40 42 42 40 38 37 37 38 39 40 41 41 42 41 41 42 43 44 44 44 45 47 49 49 50 49 49 50 51 52 54 54 54 55 56 56 57 59 62 66 70 74 75 76 78 80 82 84 85 87 89 92
97 95 93 91 89 85 82 79 76 73 72 71 69 67 65 63 62 60 58 56 54 51 47 44 42 41 39 38 34 31 29 29 29 34 42 48 50 50 46 41 39 39 42 43 44 45 45 45 44 45 46 46 45 45 47 49 50 50 50 50 50 51 53 55 57 57 56 57 58 57 58 61 64 68 73 76 78 79 81 83 85 87 88 90 91 93
99 98 96 93 90 87 84 81 79 76 74 72 71 69 67 65 64 62 58 55 53 52 49 45 43 43 42 40 36 34 34 34 35 38 42 44 47 51 51 47 44 45 47 47 46 45 45 44 43 43 42 42 43 44 46 47 48 48 49 50 52 54 56 58 59 59 59 59 59 59 61 63 66 71 76 79 81 83 85 86 88 91 92 93 92 94
101 100 98 95 93 90 87 83 80 78 76 75 73 71 69 67 66 64 60 56 52 49 46 45 44 43 41 39 37 36 37 39 40 43 45 43 39 41 44 44 44 45 46 44 42 40 38 37 37 37 38 39 41 43 44 45 47 49 51 53 56 57 58 59 60 60 60 60 60 62 63 66 70 75 80 82 84 85 87 89 91 94 97 97 97 97
Wind_Direction
221 227 234 240 260 276 274 274 277 299 0 105 70 55 77 106 103 89 92 95 92 93 90 85 85 94 97 93 89 86 82 78 75 71 69 70 71 71 71 70 70 70 71 71 73 74 75 76 76 76 76 75 75 75 74 74 73 72 71 70 69 68 66 65 64 63 62 61 61 60 60 58 56 55 53 52 50 47 45 44 42 40 38 37 36 34
225 221 237 245 265 285 285 276 265 330 85 99 66 63 88 110 115 97 94 99 96 93 88 83 86 96 101 96 88 82 79 79 79 79 80 79 76 74 73 72 72 73 74 74 75 75 75 75 75 75 75 73 73 72 71 71 70 69 69 68 67 66 66 66 65 65 64 62 61 59 57 55 53 52 50 49 47 46 44 43 41 39 38 37 36 35
222 215 218 216 199 283 295 300 224 111 80 73 57 78 101 111 123 112 103 102 99 94 88 83 87 97 102 97 87 81 80 82 84 85 85 82 76 74 73 72 73 74 75 75 75 75 75 75 75 75 74 72 72 71 71 71 70 70 69 69 68 67 67 66 65 64 62 60 58 56 55 53 51 50 49 47 46 45 44 42 41 39 39 38 37 37
217 217 214 204 204 260 272 93 226 169 96 80 73 87 104 113 120 112 104 102 98 95 90 84 88 97 101 96 90 86 84 86 90 91 88 82 75 71 71 72 73 74 75 75 75 76 76 76 76 75 74 73 72 71 71 71 71 71 70 69 68 67 66 64 62 60 58 56 55 54 53 52 50 49 48 46 45 44 42 41 39 38 37 37 36 35
219 218 222 217 222 243 209 143 222 170 133 107 88 89 97 113 123 114 105 104 103 97 90 87 90 97 101 97 94 92 90 90 95 97 91 84 76 72 72 73 74 76 76 77 78 78 78 77 77 76 75 74 73 73 72 71 71 70 70 68 67 65 64 62 60 58 55 53 52 51 50 49 48 47 45 44 43 41 39 37 36 35 34 33 32 31
230 225 230 229 233 237 203 187 200 173 164 138 117 106 96 117 136 129 118 112 111 104 94 91 93 99 104 101 98 99 98 97 100 100 93 86 81 78 74 72 74 77 78 80 80 79 79 78 78 77 76 75 75 73 72 71 70 69 68 67 65 63 61 59 57 55 53 51 49 48 46 45 44 43 42 41 39 37 36 34 33 32 31 29 28 27
242 240 241 239 239 226 194 205 213 194 187 165 163 153 113 133 151 141 134 125 120 111 99 96 98 104 110 109 106 106 110 110 105 102 96 89 88 82 73 70 72 75 77 79 81 81 80 79 78 77 77 76 75 73 71 69 68 67 66 64 62 59 57 56 54 52 50 48 46 44 42 41 40 39 38 37 35 34 33 32 31 29 27 26 24 23
247 248 246 248 239 215 196 213 213 194 188 186 203 202 152 149 161 146 135 128 122 111 99 98 104 111 115 117 117 112 118 122 113 107 103 96 95 86 74 70 71 74 78 80 82 84 83 80 78 77 76 74 72 70 68 66 65 64 63 61 59 57 54 52 50 47 45 43 41 39 38 36 35 34 33 32 31 30 29 28 27 25 24 22 20 19
244 245 243 247 233 212 207 219 212 196 197 203 214 206 172 160 162 148 137 132 126 111 97 96 103 114 121 124 125 120 125 130 120 112 110 105 103 90 77 74 75 78 81 84 85 86 84 82 79 78 76 74 71 68 64 62 61 61 60 59 57 54 52 49 46 44 41 40 38 35 34 33 32 31 30 29 28 26 25 24 22 21 20 18 16 15
242 243 241 241 223 211 216 219 209 203 207 205 205 198 176 163 157 146 142 144 133 105 95 100 101 115 130 133 134 133 134 135 128 119 114 112 110 95 82 81 83 85 87 89 89 88 85 83 81 79 77 75 71 67 63 60 57 57 57 56 55 53 51 48 45 42 40 38 36 34 33 31 30 29 27 26 25 24 23 21 20 18 17 15 14 12
241 244 242 235 220 217 224 218 210 209 208 197 189 189 177 166 159 147 142 152 153 118 104 111 103 112 132 140 144 145 142 139 135 128 121 117 113 99 90 90 93 92 93 94 93 89 85 81 79 77 75 73 69 65 62 59 56 53 52 51 51 51 50 48 45 42 39 37 35 34 32 30 28 26 25 24 23 21 20 18 17 15 14 12 11 10
238 241 238 233 224 221 221 218 221 217 211 209 200 187 177 170 171 162 142 150 167 142 117 116 107 113 129 137 146 149 146 143 138 135 128 119 114 105 101 102 101 97 98 99 94 88 83 78 76 74 71 68 64 61 58 55 53 50 47 45 45 45 45 44 42 39 37 34 32 31 29 28 26 24 23 21 20 19 17 16 14 12 11 9 8 8
231 233 229 226 224 221 219 223 231 224 217 221 210 184 176 176 184 178 148 147 173 157 134 123 112 119 135 143 149 149 150 149 146 143 136 126 121 115 113 114 109 103 105 103 96 88 82 77 73 69 67 64 60 57 52 48 47 45 42 39 38 39 38 37 36 34 32 29 27 26 24 24 23 21 19 18 17 16 15 14 12 10 9 8 7 6
222 223 220 218 217 217 220 227 229 224 221 217 200 180 176 184 197 187 156 152 171 162 150 137 122 123 142 153 157 154 154 153 148 144 136 131 132 127 124 124 118 113 111 105 97 91 84 78 73 68 67 65 60 56 50 45 42 40 37 36 34 34 33 32 30 29 27 24 21 19 18 18 17 17 15 15 14 13 12 11 10 9 7 7 6 5
214 216 214 212 210 211 217 222 219 215 209 195 187 181 178 187 197 181 158 157 165 166 162 152 147 142 146 156 161 160 158 152 144 136 129 135 142 139 134 132 126 119 114 105 97 91 85 79 74 69 65 62 59 56 50 46 44 40 36 33 32 33 31 29 27 26 23 20 18 15 13 12 11 11 10 10 9 9 8 8 7 6 6 5 5 4
212 212 211 209 208 209 215 216 207 200 191 182 184 183 179 184 189 171 156 154 161 173 177 172 175 158 152 156 160 160 159 151 145 141 139 143 148 146 140 138 131 121 113 105 95 89 85 80 72 65 60 56 55 54 51 48 43 39 35 30 29 28 26 24 23 22 20 18 15 13 10 8 6 5 4 4 3 3 3 3 3 3 3 3 2 1
212 208 208 208 207 208 211 203 192 188 181 180 185 182 178 182 184 176 172 165 164 176 185 189 184 160 157 159 160 163 161 154 152 150 147 149 152 149 143 140 136 125 113 108 100 92 87 81 71 62 56 51 49 47 46 43 35 31 28 24 22 20 18 17 16 16 16 13 11 9 7 6 4 2 1 0 360 359 358 358 359 359 360 359 359 359
210 205 204 206 204 204 205 191 183 188 187 184 188 186 182 183 184 187 188 185 180 177 185 195 177 160 163 164 164 166 161 158 162 158 149 147 149 148 143 144 144 134 121 112 104 96 90 86 76 64 55 48 43 38 35 31 26 24 21 16 12 12 12 11 10 10 10 8 5 3 2 1 360 359 358 357 357 356 355 355 355 356 356 356 356 356
208 204 202 202 198 197 200 188 182 192 194 188 189 189 187 185 187 190 185 189 196 184 184 192 177 165 169 169 168 168 165 168 174 170 159 150 148 147 146 151 154 144 128 114 104 100 95 87 75 65 56 47 38 29 23 21 18 16 15 11 7 4 4 4 3 4 4 3 2 360 358 356 355 355 355 354 354 353 353 353 354 354 354 354 354 353
206 205 201 198 193 192 194 187 186 195 197 192 192 190 187 186 189 193 188 194 205 194 186 188 178 173 176 175 174 173 174 177 178 175 169 162 157 154 151 154 155 148 134 121 114 108 96 85 71 58 46 38 28 18 14 14 13 9 8 7 5 2 0 359 359 359 0 0 0 358 356 354 353 353 353 353 352 351 351 352 352 352 352 351 351 351
204 206 202 196 192 191 192 190 193 200 199 196 198 194 189 189 192 197 196 200 206 198 187 184 180 180 182 183 183 180 180 180 177 176 176 172 171 169 161 154 153 153 150 145 135 116 94 78 61 38 25 21 15 8 5 7 10 9 3 0 2 1 359 358 357 357 359 359 359 357 355 352 351 351 352 352 351 351 350 350 350 350 350 349 348 349
204 206 204 199 194 191 192 194 198 204 202 198 200 199 193 192 196 202 205 205 203 198 191 187 185 186 186 188 190 188 185 182 176 177 181 181 183 186 180 167 162 161 160 155 135 104 63 29 16 12 11 9 6 2 357 358 3 4 359 357 359 0 358 355 355 356 357 357 356 354 353 351 349 349 350 351 351 350 350 350 350 349 349 348 347 347
207 207 206 204 199 194 193 195 198 204 205 202 203 202 195 194 201 208 208 206 202 199 198 196 192 189 188 189 194 194 190 186 181 181 186 190 192 198 204 202 193 182 179 181 148 13 345 345 346 349 356 358 359 357 349 346 352 356 357 357 356 356 355 354 353 353 354 353 352 351 350 348 346 347 349 349 349 349 350 350 349 349 349 348 347 347
214 212 209 208 205 200 198 197 198 203 206 206 207 204 199 200 207 210 208 204 200 196 199 201 197 192 189 190 195 198 198 195 190 189 194 196 195 199 209 219 222 214 216 240 274 285 301 327 335 335 341 346 349 349 344 343 347 351 353 354 353 353 353 353 353 352 351 350 349 348 347 345 344 345 347 348 347 347 347 348 348 348 347 347 347 346
220 217 212 209 208 206 204 201 199 202 206 208 210 209 205 205 209 209 206 204 201 197 200 203 198 193 194 196 198 201 204 203 200 200 203 203 200 202 209 220 229 235 243 256 266 275 290 310 319 323 333 337 335 337 341 345 347 347 347 348 350 350 351 351 351 351 350 348 347 346 345 343 342 343 345 346 345 344 344 344 345 346 346 346 346 345
220 219 214 210 207 206 206 203 199 201 205 209 212 212 207 205 206 205 204 206 206 204 206 208 203 198 200 203 202 203 206 208 208 210 211 211 210 211 215 221 231 239 245 253 258 265 281 295 305 315 325 328 326 329 336 340 342 342 342 344 346 347 347 347 348 348 347 346 345 344 343 341 340 342 343 344 342 341 340 341 343 343 344 345 345 345
219 219 216 211 207 205 206 205 203 203 205 209 212 211 206 203 205 206 206 208 210 210 212 214 209 205 206 208 206 205 207 210 214 216 218 220 221 222 223 227 233 239 242 247 252 260 274 288 296 305 312 317 322 327 331 333 335 337 340 342 342 341 343 344 344 344 343 343 342 341 340 339 339 339 341 341 340 339 339 340 341 342 343 344 345 346
216 218 217 214 211 209 209 208 209 209 208 210 213 211 207 207 209 209 210 211 213 214 216 218 214 209 211 212 211 210 210 213 218 221 224 231 235 235 233 233 237 242 245 249 254 262 273 282 288 295 302 309 319 326 328 328 331 334 337 338 337 337 339 340 340 340 339 339 339 338 337 337 337 337 338 339 339 339 339 340 341 342 343 344 346 347
214 215 216 216 215 215 212 210 211 212 211 212 213 212 211 213 214 214 215 216 216 215 218 222 220 214 212 213 215 214 211 214 220 224 228 237 245 248 246 243 243 246 249 254 260 267 272 277 280 288 298 307 316 322 325 326 328 330 332 332 332 333 335 335 335 335 335 335 335 335 335 335 336 336 337 338 339 340 341 341 342 342 343 345 347 348
213 214 214 215 217 217 215 212 212 212 211 213 212 212 214 217 219 220 221 222 220 217 218 224 225 221 215 215 217 216 212 215 224 228 231 237 246 253 253 251 250 252 254 258 263 267 269 271 275 284 295 305 313 318 322 323 323 324 326 327 327 328 329 330 330 331 331 332 333 333 334 334 335 335 336 338 340 342 342 342 341 341 343 346 348 348
212 213 213 215 217 217 216 216 217 216 216 216 215 215 216 220 222 223 225 226 224 220 220 225 228 225 220 218 220 218 214 217 226 232 236 239 244 250 252 251 251 254 257 261 263 266 267 269 275 283 293 302 310 314 317 318 319 321 324 325 324 323 323 324 325 326 328 331 332 333 333 333 334 335 336 338 340 341 341 340 340 342 344 346 347 347
212 212 213 215 217 218 219 219 219 219 220 219 217 217 218 221 223 225 227 228 226 222 222 225 228 228 223 221 223 223 219 219 225 232 238 242 245 249 252 251 248 249 255 261 265 267 270 274 279 284 291 300 306 308 310 312 315 319 322 322 321 319 319 321 322 325 327 330 331 332 333 333 333 334 335 337 338 338 339 340 342 343 344 345 346 345
212 211 212 215 216 218 220 219 217 217 219 218 217 217 219 220 221 223 227 228 226 225 224 225 228 229 227 225 227 227 224 222 225 232 240 246 250 254 257 255 249 247 253 260 265 269 273 277 280 284 290 296 299 300 302 306 310 314 317 318 317 316 317 319 321 324 327 329 330 331 332 332 332 333 334 336 337 338 340 342 343 343 343 344 344 344
213 212 211 213 215 217 220 219 216 217 217 217 218 220 221 221 220 222 226 228 228 228 228 228 231 231 230 229 229 229 228 227 229 234 243 251 255 260 263 261 258 258 261 263 267 273 278 281 284 286 289 292 293 294 296 302 308 312 313 314 313 313 315 318 320 323 325 327 329 330 330 330 331 333 335 336 337 338 340 341 341 341 341 342 343 344
213 214 212 211 213 216 219 219 218 218 218 218 219 220 221 222 222 225 228 230 231 231 229 229 232 232 231 232 231 230 230 230 232 235 243 253 260 263 263 261 263 270 273 273 274 279 284 286 287 289 290 290 292 294 296 302 308 310 311 312 311 312 314 317 320 322 324 326 328 329 329 330 332 335 336 336 336 337 338 339 340 340 340 341 342 343
211 213 212 211 212 214 217 219 219 219 221 220 219 218 217 219 221 223 226 227 226 227 226 225 227 229 229 230 230 231 232 233 233 236 242 252 259 262 262 263 267 274 278 279 280 283 287 289 290 292 291 291 293 295 297 302 307 309 310 311 311 312 315 318 320 322 324 326 328 329 330 332 334 335 335 334 334 335 338 339 340 340 340 340 341 341
208 211 211 211 212 213 215 217 217 218 220 221 220 217 216 218 219 220 222 222 223 225 224 221 223 226 226 226 229 232 235 235 234 236 241 246 250 256 262 266 271 274 277 280 282 284 286 288 290 292 293 294 296 297 299 302 306 310 311 311 311 313 316 318 320 322 324 326 327 329 331 333 334 333 332 331 332 335 338 340 340 339 339 339 340 340
207 209 210 211 212 213 214 216 216 217 218 220 220 219 219 221 222 221 222 223 223 225 226 224 224 227 228 227 228 230 234 237 236 238 242 246 248 252 257 263 267 270 272 276 278 280 283 285 289 292 294 297 299 298 299 303 308 310 311 310 311 313 316 319 321 323 324 325 326 329 332 332 331 330 329 329 332 336 339 340 339 339 338 338 339 339
206 208 209 210 212 213 213 215 216 217 218 220 220 219 221 224 226 224 224 225 225 226 228 228 227 228 229 230 229 230 233 237 238 239 242 247 250 253 255 259 262 264 267 271 274 277 281 284 288 290 292 295 297 298 300 304 307 309 309 309 312 315 318 320 321 321 321 323 326 329 330 329 328 328 328 330 334 337 339 339 338 338 338 338 338 339
207 209 210 211 212 213 213 214 216 217 218 220 221 220 221 225 226 226 227 229 228 227 229 230 227 226 228 230 232 233 235 237 238 239 243 247 250 252 255 258 259 261 265 268 272 276 280 283 286 288 289 292 296 298 301 304 306 307 309 311 314 316 318 318 318 319 320 324 327 328 328 328 327 327 328 331 335 337 337 337 337 337 337 337 337 338
208 210 212 211 212 213 214 214 216 217 218 220 221 220 221 224 225 226 228 231 230 229 231 231 228 226 228 231 234 237 239 241 242 242 244 248 251 254 257 258 260 262 266 269 272 276 278 281 283 285 288 292 296 299 302 304 305 307 310 312 314 315 316 317 317 319 322 325 327 327 327 326 326 326 329 333 335 336 336 336 336 336 337 337 337 338
208 211 213 213 212 213 214 215 216 216 217 219 220 220 220 222 224 226 228 229 229 230 232 233 230 228 227 230 234 238 242 246 249 249 250 252 255 258 259 261 262 265 267 270 272 274 276 278 281 284 289 294 297 299 301 303 305 308 310 312 314 315 316 317 319 321 324 325 326 326 325 324 324 327 330 333 334 335 335 335 335 336 336 337 337 337
209 210 213 213 212 212 214 215 215 215 217 219 220 220 220 220 222 225 226 226 227 229 229 230 230 228 228 230 233 235 239 245 249 252 256 258 259 260 261 262 264 265 267 268 270 273 275 278 282 287 291 294 297 299 301 303 306 308 310 311 313 314 316 318 320 322 323 324 324 322 321 321 323 327 331 333 334 334 334 334 334 335 336 336 337 338
209 210 212 213 212 212 213 213 213 214 217 220 222 222 222 221 222 224 224 224 225 226 226 225 226 227 228 231 232 232 236 244 249 251 256 259 260 261 262 264 264 265 266 269 272 275 277 280 284 288 291 294 298 300 300 302 305 308 309 310 312 314 317 319 321 321 320 320 319 318 317 319 323 327 331 333 333 333 333 333 333 334 335 336 337 338
209 210 212 212 211 211 212 213 212 213 217 221 222 222 222 223 223 224 225 224 223 224 225 224 224 226 228 230 232 234 239 247 252 254 258 260 262 264 266 266 264 265 268 272 275 277 279 281 284 287 290 295 299 300 298 299 303 306 308 310 312 314 317 319 318 317 315 315 314 314 316 319 324 327 330 332 332 332 332 332 332 333 334 336 338 338
210 211 212 213 211 209 209 210 211 214 217 221 222 222 222 223 224 224 225 225 224 223 224 225 226 227 228 230 233 236 236 237 245 257 265 266 266 269 270 268 265 266 270 274 276 276 278 280 283 286 290 295 299 299 297 298 303 306 308 310 312 314 316 316 314 313 312 312 313 314 316 321 325 327 329 331 331 331 331 331 331 332 334 337 338 338
210 211 213 214 213 210 208 207 208 212 216 220 222 222 221 222 224 224 225 226 225 223 222 224 227 227 227 230 232 233 232 232 241 258 270 272 272 274 273 271 270 272 275 277 278 278 279 282 285 287 290 294 298 298 297 299 303 306 308 308 310 312 313 313 312 311 311 311 313 315 318 322 325 327 329 329 329 329 329 330 331 333 335 338 338 338
211 212 214 215 215 213 210 207 206 209 214 218 221 222 220 220 223 224 225 226 226 224 222 223 226 227 227 228 228 229 232 238 246 257 264 270 274 276 275 274 275 278 282 283 283 282 283 285 287 289 291 294 297 297 297 299 302 305 306 307 309 310 311 311 310 310 310 311 313 316 318 321 324 326 328 328 328 328 328 329 331 334 336 337 338 338
212 213 214 215 216 215 212 209 208 209 212 215 219 221 221 220 221 223 224 225 226 225 223 223 226 227 227 227 226 225 229 237 243 247 254 263 268 269 270 273 279 285 290 290 287 286 287 288 289 291 293 295 296 298 299 301 303 305 307 308 308 308 308 309 310 310 310 311 313 315 317 320 323 324 326 326 327 327 328 330 332 334 336 337 338 338
213 214 214 215 216 216 214 212 210 210 211 214 216 219 220 220 220 221 222 223 225 226 226 225 226 226 227 229 228 226 227 233 237 236 242 254 265 267 268 272 279 287 291 291 289 289 290 290 291 293 296 299 300 301 302 303 304 306 307 307 307 308 308 309 311 311 311 310 312 314 316 318 321 322 324 326 327 328 329 331 333 334 335 336 338 340
213 214 215 215 216 216 215 214 212 212 212 213 215 217 219 221 221 221 220 221 224 226 227 226 225 225 227 229 229 228 230 236 240 239 239 245 258 267 270 274 281 286 288 288 286 286 287 290 294 298 300 302 302 301 301 302 304 306 306 307 308 308 309 310 311 311 310 309 310 313 315 317 319 321 324 326 328 329 330 332 333 334 334 336 339 340
Height
10721 10721 10720 10719 10720 10720 10721 10721 10720 10719 10719 10719 10719 10718 10717 10716 10715 10715 10715 10715 10715 10715 10715 10714 10713 10712 10712 10712 10712 10712 10712 10712 10712 10712 10711 10711 10711 10711 10711 10711 10711 10710 10710 10709 10708 10707 10707 10705 10704 10703 10702 10702 10701 10701 10701 10700 10700 10699 10699 10699 10699 10698 10698 10697 10696 10695 10694 10693 10692 10691 10689 10687 10686 10684 10682 10681 10679 10677 10675 10672 10670 10668 10667 10664 10661 10659
10720 10719 10719 10719 10720 10720 10721 10721 10720 10719 10718 10718 10718 10718 10716 10715 10715 10715 10715 10715 10715 10716 10716 10714 10713 10713 10712 10713 10713 10712 10711 10712 10712 10712 10712 10712 10713 10713 10713 10713 10713 10712 10712 10712 10711 10709 10708 10707 10706 10705 10705 10704 10703 10703 10703 10702 10702 10702 10701 10701 10701 10700 10700 10699 10698 10697 10696 10695 10694 10692 10690 10689 10687 10685 10683 10681 10680 10678 10675 10672 10671 10669 10667 10664 10661 10659
10719 10719 10719 10719 10720 10720 10720 10720 10719 10719 10718 10717 10717 10717 10716 10715 10715 10716 10716 10716 10715 10716 10716 10715 10714 10713 10713 10713 10712 10712 10711 10712 10712 10713 10713 10714 10714 10714 10715 10715 10714 10714 10714 10713 10712 10711 10710 10709 10708 10707 10707 10706 10705 10705 10705 10705 10704 10704 10704 10703 10703 10703 10702 10701 10700 10699 10698 10697 10695 10693 10692 10690 10688 10686 10684 10682 10680 10678 10675 10673 10671 10669 10666 10664 10662 10660
10717 10718 10718 10718 10719 10719 10719 10719 10718 10718 10717 10716 10716 10717 10716 10716 10716 10716 10716 10716 10716 10717 10716 10715 10714 10714 10714 10713 10713 10712 10712 10713 10714 10714 10715 10715 10716 10716 10717 10716 10716 10716 10715 10714 10713 10713 10712 10710 10710 10709 10708 10708 10707 10707 10707 10707 10706 10706 10706 10706 10705 10705 10704 10703 10702 10701 10699 10698 10696 10695 10693 10691 10689 10687 10685 10683 10680 10678 10676 10673 10671 10669 10667 10665 10663 10661
10716 10717 10717 10717 10718 10718 10718 10718 10718 10717 10716 10716 10716 10717 10717 10716 10716 10716 10716 10716 10718 10718 10717 10716 10715 10714 10714 10714 10714 10713 10713 10714 10715 10716 10716 10717 10718 10718 10718 10718 10718 10718 10717 10716 10715 10714 10713 10712 10712 10711 10710 10710 10710 10710 10710 10710 10709 10708 10708 10708 10707 10707 10706 10705 10703 10702 10701 10699 10697 10695 10693 10691 10689 10687 10685 10683 10681 10678 10676 10674 10672 10670 10668 10666 10664 10661
10714 10715 10716 10716 10717 10717 10718 10718 10718 10717 10716 10716 10716 10717 10717 10717 10717 10716 10716 10717 10719 10719 10717 10716 10715 10715 10715 10715 10715 10715 10715 10716 10717 10717 10718 10718 10719 10720 10720 10720 10719 10719 10719 10718 10717 10715 10714 10714 10714 10713 10712 10712 10712 10712 10712 10712 10711 10711 10710 10710 10709 10708 10707 10706 10705 10704 10702 10700 10698 10696 10694 10692 10690 10688 10686 10683 10681 10678 10677 10676 10674 10672 10669 10666 10663 10661
10713 10714 10715 10715 10716 10716 10717 10717 10717 10717 10715 10715 10715 10716 10716 10717 10717 10716 10716 10718 10720 10719 10718 10717 10717 10716 10716 10716 10716 10716 10717 10718 10718 10719 10719 10720 10720 10720 10721 10721 10721 10721 10720 10719 10718 10717 10717 10717 10716 10715 10714 10714 10714 10714 10715 10714 10713 10713 10712 10711 10710 10710 10708 10707 10706 10705 10703 10701 10699 10697 10695 10693 10691 10689 10686 10684 10682 10681 10679 10677 10674 10672 10669 10666 10663 10660
10711 10712 10713 10714 10714 10715 10715 10716 10716 10715 10715 10714 10714 10715 10716 10717 10717 10717 10717 10719 10720 10720 10718 10718 10717 10717 10717 10717 10717 10717 10718 10719 10719 10720 10720 10720 10721 10722 10722 10722 10722 10722 10721 10721 10720 10719 10719 10718 10717 10717 10717 10717 10717 10717 10717 10716 10716 10715 10714 10713 10712 10711 10710 10708 10707 10706 10704 10702 10700 10699 10697 10694 10692 10690 10688 10686 10684 10683 10680 10677 10674 10671 10669 10666 10663 10661
10709 10710 10712 10713 10713 10714 10714 10714 10714 10714 10713 10713 10714 10715 10716 10716 10717 10717 10717 10719 10720 10720 10719 10718 10718 10718 10718 10718 10718 10718 10719 10720 10720 10721 10721 10721 10722 10723 10723 10723 10723 10724 10723 10723 10722 10721 10720 10720 10719 10719 10719 10719 10719 10719 10719 10719 10718 10717 10715 10714 10713 10712 10711 10710 10708 10707 10705 10703 10701 10700 10698 10695 10693 10691 10689 10687 10685 10682 10679 10677 10674 10672 10669 10667 10664 10661
10706 10708 10710 10711 10712 10712 10713 10713 10713 10712 10712 10713 10713 10714 10715 10716 10717 10716 10717 10718 10719 10720 10719 10719 10718 10719 10719 10719 10719 10719 10720 10721 10721 10722 10722 10722 10723 10724 10724 10724 10725 10726 10725 10724 10723 10722 10722 10722 10721 10721 10721 10721 10721 10721 10721 10720 10720 10718 10717 10716 10715 10713 10712 10711 10709 10708 10706 10704 10703 10701 10699 10696 10694 10692 10690 10687 10684 10682 10679 10677 10675 10672 10669 10667 10664 10661
10704 10706 10708 10710 10711 10711 10712 10712 10711 10711 10712 10712 10712 10713 10714 10716 10716 10716 10717 10718 10719 10720 10720 10719 10719 10719 10720 10720 10720 10720 10721 10722 10722 10723 10723 10723 10724 10725 10725 10727 10727 10727 10726 10725 10725 10724 10724 10724 10724 10723 10723 10723 10723 10723 10722 10722 10721 10720 10719 10717 10716 10715 10713 10712 10710 10709 10707 10705 10704 10701 10699 10697 10694 10692 10690 10687 10685 10683 10680 10678 10675 10672 10669 10667 10664 10661
10702 10704 10706 10708 10709 10710 10711 10710 10709 10709 10710 10711 10712 10713 10714 10715 10715 10716 10717 10718 10719 10719 10720 10720 10719 10720 10720 10721 10721 10721 10722 10723 10723 10723 10724 10724 10725 10726 10727 10728 10729 10728 10728 10727 10726 10726 10726 10726 10725 10725 10724 10724 10724 10724 10723 10723 10721 10720 10719 10719 10717 10716 10714 10713 10711 10709 10708 10706 10704 10702 10699 10697 10695 10692 10690 10688 10686 10683 10680 10678 10675 10672 10669 10667 10663 10660
10700 10702 10704 10706 10707 10707 10708 10708 10708 10709 10710 10710 10710 10712 10713 10714 10715 10716 10717 10717 10718 10719 10720 10720 10720 10720 10721 10721 10721 10722 10722 10723 10724 10724 10725 10725 10726 10727 10728 10729 10729 10729 10729 10728 10728 10728 10728 10727 10726 10725 10725 10725 10725 10725 10724 10723 10722 10721 10720 10719 10718 10717 10715 10713 10711 10709 10708 10706 10704 10702 10700 10698 10695 10693 10690 10688 10685 10683 10680 10677 10675 10672 10669 10666 10663 10660
10698 10700 10702 10703 10704 10705 10706 10706 10706 10708 10708 10708 10709 10710 10713 10714 10715 10716 10716 10717 10718 10719 10719 10719 10720 10721 10721 10721 10722 10722 10723 10723 10724 10725 10725 10726 10727 10728 10729 10730 10730 10729 10729 10729 10728 10728 10728 10727 10726 10726 10726 10726 10725 10725 10724 10723 10722 10721 10721 10720 10718 10717 10715 10713 10711 10710 10708 10706 10704 10702 10700 10698 10695 10693 10691 10688 10685 10682 10680 10677 10674 10671 10668 10665 10662 10659
10696 10697 10699 10701 10702 10703 10703 10704 10705 10707 10707 10707 10708 10709 10711 10713 10714 10715 10716 10716 10718 10719 10719 10719 10720 10721 10721 10721 10722 10723 10723 10723 10724 10725 10725 10726 10728 10729 10730 10730 10730 10729 10729 10729 10729 10729 10728 10727 10727 10727 10727 10726 10725 10725 10724 10723 10722 10721 10720 10719 10718 10717 10715 10714 10712 10710 10708 10706 10704 10702 10700 10698 10696 10693 10691 10688 10685 10682 10680 10677 10674 10671 10668 10664 10661 10658
10693 10695 10697 10699 10700 10701 10702 10703 10705 10706 10706 10707 10707 10709 10710 10712 10713 10714 10715 10716 10717 10718 10719 10720 10720 10721 10721 10722 10723 10723 10724 10724 10724 10725 10726 10727 10728 10729 10729 10729 10730 10730 10729 10730 10730 10729 10728 10728 10728 10728 10727 10726 10725 10725 10724 10723 10722 10721 10720 10719 10718 10716 10715 10713 10712 10710 10708 10706 10705 10703 10701 10698 10696 10693 10691 10688 10685 10682 10679 10676 10674 10671 10668 10665 10661 10658
10690 10692 10694 10696 10698 10700 10701 10702 10704 10705 10705 10706 10707 10708 10710 10711 10712 10714 10715 10715 10716 10717 10719 10720 10721 10721 10721 10722 10723 10724 10724 10724 10725 10726 10727 10728 10729 10729 10729 10729 10730 10730 10730 10730 10730 10729 10729 10729 10729 10728 10727 10726 10726 10725 10724 10723 10722 10721 10720 10719 10718 10716 10715 10713 10711 10710 10708 10706 10705 10703 10700 10698 10696 10693 10691 10688 10685 10682 10679 10676 10673 10670 10667 10663 10660 10657
10688 10690 10692 10694 10696 10698 10700 10701 10702 10703 10703 10704 10706 10707 10708 10710 10711 10713 10714 10715 10715 10717 10718 10720 10721 10721 10722 10723 10723 10724 10724 10725 10725 10726 10727 10728 10729 10729 10729 10729 10730 10730 10730 10730 10729 10729 10729 10729 10729 10728 10727 10726 10726 10725 10724 10723 10722 10721 10720 10719 10718 10716 10714 10713 10711 10709 10708 10706 10704 10702 10700 10697 10695 10692 10690 10687 10684 10681 10679 10676 10673 10669 10666 10663 10659 10656
10685 10687 10689 10691 10693 10696 10698 10699 10700 10701 10701 10702 10703 10705 10706 10708 10710 10711 10713 10714 10715 10716 10717 10719 10720 10721 10722 10723 10724 10724 10725 10726 10726 10727 10727 10728 10728 10729 10729 10729 10729 10730 10730 10729 10729 10729 10729 10729 10728 10727 10727 10726 10725 10725 10724 10723 10722 10721 10720 10719 10717 10716 10714 10712 10711 10709 10707 10705 10703 10701 10699 10696 10694 10691 10689 10686 10683 10680 10677 10674 10671 10668 10665 10662 10658 10655
10682 10683 10685 10688 10690 10693 10695 10697 10698 10699 10699 10700 10702 10703 10705 10707 10709 10710 10711 10713 10715 10716 10717 10718 10720 10721 10722 10723 10724 10725 10726 10727 10728 10727 10727 10728 10728 10728 10729 10729 10729 10729 10729 10729 10729 10729 10729 10728 10728 10727 10727 10726 10725 10724 10724 10723 10722 10720 10719 10718 10717 10715 10714 10712 10710 10708 10706 10704 10702 10700 10698 10695 10693 10690 10687 10685 10682 10679 10676 10673 10669 10666 10662 10659 10655 10651
10678 10680 10682 10684 10687 10690 10693 10695 10696 10697 10698 10699 10700 10702 10704 10706 10708 10709 10710 10712 10714 10715 10716 10717 10719 10720 10722 10723 10724 10725 10726 10727 10728 10728 10728 10727 10727 10727 10728 10729 10729 10729 10729 10729 10730 10729 10729 10728 10728 10727 10726 10726 10725 10724 10723 10722 10721 10720 10719 10717 10716 10714 10713 10711 10710 10708 10706 10704 10701 10699 10697 10694 10692 10689 10687 10684 10681 10678 10675 10671 10668 10664 10661 10657 10653 10649
10676 10677 10678 10681 10683 10687 10690 10692 10694 10695 10696 10697 10699 10701 10703 10705 10707 10708 10709 10710 10712 10713 10714 10715 10717 10719 10721 10722 10724 10725 10726 10726 10727 10727 10727 10727 10727 10727 10728 10729 10729 10729 10729 10729 10729 10729 10728 10727 10727 10726 10726 10725 10724 10723 10722 10721 10720 10719 10718 10716 10715 10713 10712 10710 10709 10707 10705 10703 10701 10699 10696 10694 10691 10688 10686 10683 10680 10676 10673 10670 10666 10663 10659 10656 10652 10648
10673 10674 10676 10679 10681 10684 10686 10688 10690 10692 10694 10696 10697 10699 10701 10703 10705 10706 10707 10708 10710 10711 10712 10714 10715 10717 10720 10721 10723 10724 10724 10725 10726 10726 10726 10727 10727 10727 10727 10727 10728 10728 10728 10728 10727 10727 10727 10727 10726 10725 10725 10724 10723 10722 10722 10721 10720 10718 10717 10715 10713 10712 10711 10709 10707 10705 10704 10702 10700 10698 10695 10693 10690 10687 10684 10681 10677 10674 10671 10667 10664 10661 10657 10654 10651 10647
10673 10674 10676 10678 10679 10681 10682 10684 10687 10690 10692 10694 10696 10698 10699 10701 10703 10705 10706 10707 10708 10709 10711 10712 10714 10716 10718 10720 10721 10722 10723 10723 10724 10725 10725 10726 10727 10727 10727 10726 10726 10726 10726 10726 10726 10725 10726 10726 10725 10724 10724 10723 10722 10722 10721 10720 10719 10717 10715 10714 10713 10711 10710 10709 10707 10705 10702 10700 10698 10696 10693 10691 10688 10685 10682 10678 10675 10672 10668 10665 10662 10659 10656 10652 10649 10644
10673 10673 10674 10676 10678 10679 10681 10682 10685 10688 10691 10692 10694 10696 10698 10700 10702 10703 10704 10705 10707 10708 10709 10711 10713 10715 10717 10718 10720 10720 10721 10721 10722 10723 10724 10725 10726 10726 10726 10725 10725 10725 10725 10725 10724 10724 10724 10724 10723 10722 10722 10722 10721 10721 10720 10719 10717 10716 10715 10714 10712 10711 10709 10708 10707 10705 10703 10700 10697 10695 10692 10689 10686 10683 10680 10677 10673 10670 10667 10664 10661 10658 10655 10650 10646 10642
10669 10670 10671 10673 10675 10677 10679 10681 10683 10686 10688 10690 10692 10693 10695 10698 10700 10701 10702 10704 10705 10706 10708 10709 10711 10714 10715 10717 10718 10719 10719 10720 10720 10721 10722 10723 10724 10724 10724 10724 10724 10724 10724 10724 10724 10723 10723 10723 10722 10721 10721 10720 10720 10719 10718 10717 10716 10715 10714 10712 10711 10709 10708 10706 10705 10704 10701 10699 10696 10693 10690 10687 10684 10681 10678 10675 10672 10669 10666 10663 10659 10656 10652 10648 10643 10639
10664 10665 10667 10669 10671 10673 10675 10677 10680 10682 10684 10687 10689 10691 10693 10695 10697 10698 10700 10701 10703 10704 10706 10707 10709 10712 10714 10715 10716 10717 10718 10718 10719 10719 10720 10721 10722 10722 10722 10723 10723 10723 10723 10723 10723 10723 10722 10721 10721 10720 10720 10719 10718 10717 10716 10715 10714 10713 10711 10710 10708 10706 10704 10703 10701 10699 10697 10695 10693 10691 10688 10685 10682 10679 10676 10673 10670 10667 10664 10661 10657 10653 10648 10644 10640 10635
10658 10661 10664 10666 10668 10670 10671 10674 10677 10679 10682 10684 10686 10689 10690 10692 10693 10695 10696 10698 10700 10702 10703 10705 10707 10710 10712 10713 10714 10716 10717 10717 10717 10718 10719 10720 10720 10720 10721 10721 10722 10721 10721 10721 10721 10721 10721 10721 10720 10719 10719 10718 10717 10716 10714 10713 10712 10710 10709 10707 10706 10705 10702 10700 10698 10696 10694 10692 10690 10688 10685 10682 10680 10677 10674 10671 10668 10665 10661 10657 10653 10649 10644 10640 10635 10630
10653 10657 10662 10665 10666 10667 10669 10672 10674 10676 10679 10681 10683 10686 10687 10688 10690 10691 10693 10694 10697 10699 10701 10702 10704 10707 10709 10711 10712 10714 10716 10716 10716 10717 10718 10718 10718 10718 10719 10719 10720 10719 10720 10720 10719 10719 10720 10720 10719 10718 10718 10717 10716 10715 10713 10712 10711 10709 10708 10707 10705 10704 10702 10699 10697 10695 10693 10690 10687 10685 10683 10680 10677 10674 10671 10668 10664 10661 10657 10652 10648 10644 10641 10636 10631 10625
10648 10653 10658 10661 10663 10665 10667 10668 10670 10672 10675 10677 10680 10682 10683 10685 10686 10688 10689 10691 10694 10697 10698 10699 10702 10704 10707 10708 10710 10712 10714 10715 10714 10715 10716 10716 10716 10716 10716 10717 10717 10717 10718 10718 10717 10717 10718 10719 10718 10718 10717 10715 10714 10713 10712 10711 10710 10709 10707 10706 10704 10703 10701 10699 10697 10695 10692 10690 10687 10684 10681 10678 10675 10672 10668 10665 10661 10657 10652 10649 10645 10642 10637 10632 10627 10622
10643 10649 10653 10656 10658 10661 10663 10665 10667 10670 10673 10675 10677 10679 10680 10681 10682 10684 10686 10689 10691 10694 10695 10697 10699 10701 10704 10706 10707 10709 10712 10712 10712 10712 10713 10714 10714 10714 10714 10714 10715 10716 10716 10716 10715 10715 10716 10716 10716 10716 10715 10714 10712 10712 10711 10709 10708 10707 10705 10704 10702 10701 10700 10698 10696 10694 10692 10689 10686 10683 10680 10676 10673 10669 10666 10662 10658 10655 10652 10648 10644 10639 10634 10629 10624 10619
10637 10643 10648 10651 10654 10658 10661 10664 10667 10670 10671 10673 10674 10675 10676 10677 10679 10681 10683 10686 10689 10691 10693 10695 10697 10699 10701 10703 10705 10707 10709 10710 10710 10710 10711 10711 10712 10711 10711 10712 10713 10714 10714 10714 10713 10713 10713 10713 10713 10713 10713 10711 10710 10710 10709 10708 10706 10705 10703 10702 10700 10699 10698 10696 10694 10692 10690 10687 10684 10680 10677 10674 10670 10667 10664 10661 10658 10655 10651 10646 10641 10635 10630 10625 10621 10616
10632 10637 10642 10646 10651 10655 10658 10661 10664 10665 10667 10668 10670 10671 10672 10674 10677 10679 10680 10682 10686 10688 10691 10693 10694 10696 10699 10701 10702 10704 10706 10707 10708 10708 10709 10709 10709 10708 10708 10709 10711 10712 10712 10711 10711 10711 10710 10710 10710 10710 10710 10709 10708 10708 10708 10706 10705 10703 10702 10700 10698 10697 10695 10693 10691 10688 10686 10683 10680 10677 10674 10671 10668 10665 10662 10658 10655 10651 10646 10641 10637 10633 10629 10625 10620 10615
10627 10631 10636 10641 10647 10650 10653 10657 10659 10660 10662 10664 10666 10667 10669 10671 10674 10676 10677 10680 10684 10686 10688 10690 10692 10694 10697 10698 10700 10702 10703 10704 10705 10706 10707 10706 10705 10705 10704 10705 10707 10709 10709 10708 10708 10708 10707 10706 10706 10706 10706 10706 10706 10705 10705 10704 10703 10702 10700 10698 10696 10694 10693 10690 10688 10686 10683 10680 10677 10674 10672 10669 10666 10662 10658 10654 10651 10647 10643 10639 10635 10631 10627 10623 10618 10613
10621 10625 10631 10637 10641 10644 10648 10651 10654 10656 10659 10660 10661 10664 10667 10670 10672 10674 10677 10679 10682 10684 10686 10688 10689 10692 10694 10695 10697 10699 10700 10701 10703 10704 10704 10703 10702 10701 10701 10702 10704 10705 10704 10704 10705 10704 10703 10702 10702 10703 10703 10703 10703 10702 10701 10700 10699 10698 10697 10696 10693 10692 10690 10688 10685 10683 10680 10677 10674 10671 10668 10665 10661 10658 10654 10651 10647 10644 10640 10637 10632 10628 10623 10618 10613 10608
10614 10619 10626 10631 10634 10637 10641 10645 10649 10653 10655 10656 10657 10660 10664 10666 10669 10672 10674 10676 10678 10680 10682 10685 10687 10688 10690 10691 10693 10695 10697 10698 10700 10701 10701 10701 10700 10698 10698 10699 10701 10701 10700 10700 10701 10700 10699 10699 10699 10699 10699 10699 10699 10699 10698 10697 10696 10695 10693 10692 10690 10688 10686 10684 10681 10679 10676 10673 10670 10666 10663 10659 10656 10653 10650 10647 10644 10641 10637 10632 10627 10622 10617 10612 10607 10602
10607 10612 10619 10624 10627 10631 10634 10638 10643 10647 10649 10650 10652 10656 10660 10662 10664 10667 10669 10671 10674 10676 10679 10682 10683 10684 10686 10689 10691 10692 10694 10695 10697 10698 10699 10698 10697 10696 10697 10698 10698 10698 10697 10697 10697 10697 10696 10696 10696 10696 10696 10695 10695 10695 10694 10694 10692 10691 10689 10687 10686 10684 10682 10679 10677 10674 10671 10668 10665 10662 10659 10655 10652 10649 10647 10644 10641 10637 10632 10627 10621 10616 10612 10607 10603 10597
10600 10605 10611 10617 10621 10625 10628 10631 10635 10639 10641 10644 10648 10652 10656 10658 10660 10663 10666 10668 10671 10674 10676 10678 10680 10682 10685 10687 10689 10690 10690 10692 10694 10695 10696 10695 10695 10696 10696 10696 10696 10696 10695 10695 10694 10694 10693 10693 10693 10693 10692 10692 10691 10691 10690 10690 10688 10687 10686 10684 10682 10680 10678 10675 10672 10669 10667 10664 10662 10659 10656 10653 10650 10647 10644 10641 10637 10632 10627 10622 10617 10612 10607 10603 10598 10592
10594 10599 10604 10609 10614 10618 10621 10625 10629 10632 10636 10639 10644 10649 10652 10654 10658 10662 10663 10664 10668 10670 10672 10675 10678 10681 10683 10685 10686 10687 10688 10689 10691 10692 10693 10693 10693 10694 10695 10695 10694 10694 10693 10692 10692 10690 10690 10690 10690 10689 10689 10689 10688 10688 10687 10686 10685 10684 10682 10680 10678 10676 10674 10671 10668 10666 10664 10662 10659 10656 10653 10650 10647 10644 10641 10637 10633 10628 10623 10618 10613 10608 10604 10599 10594 10587
10588 10592 10596 10601 10606 10610 10614 10618 10622 10627 10631 10636 10641 10645 10648 10651 10655 10658 10658 10660 10664 10666 10668 10672 10676 10678 10679 10681 10683 10684 10685 10687 10688 10690 10691 10690 10690 10691 10692 10692 10692 10691 10691 10690 10688 10687 10687 10686 10686 10686 10686 10686 10685 10684 10684 10682 10681 10680 10679 10676 10674 10672 10670 10668 10666 10664 10661 10659 10656 10653 10650 10647 10644 10641 10637 10633 10628 10624 10619 10615 10610 10606 10601 10596 10590 10583
10578 10583 10587 10592 10597 10602 10607 10611 10616 10622 10627 10632 10636 10640 10643 10646 10649 10652 10654 10658 10661 10662 10664 10667 10671 10673 10676 10678 10680 10681 10682 10684 10687 10688 10688 10687 10688 10689 10689 10689 10688 10688 10687 10686 10685 10684 10684 10684 10683 10683 10683 10682 10681 10681 10680 10679 10678 10677 10675 10673 10670 10668 10666 10664 10662 10660 10657 10654 10652 10649 10646 10643 10640 10637 10633 10629 10625 10620 10616 10612 10608 10603 10598 10592 10585 10579
10569 10574 10579 10584 10590 10595 10601 10606 10611 10617 10622 10626 10629 10633 10637 10639 10643 10647 10651 10654 10656 10658 10660 10664 10667 10670 10673 10675 10676 10677 10679 10681 10683 10684 10684 10684 10685 10686 10685 10685 10684 10684 10684 10683 10682 10681 10681 10681 10681 10680 10680 10679 10678 10677 10676 10675 10674 10673 10671 10669 10666 10664 10662 10660 10657 10655 10652 10650 10647 10644 10641 10639 10636 10633 10629 10626 10621 10617 10613 10609 10604 10599 10593 10587 10581 10575
10560 10565 10570 10577 10583 10589 10594 10599 10605 10613 10618 10621 10623 10626 10630 10634 10639 10643 10646 10649 10651 10653 10657 10660 10664 10667 10669 10671 10672 10674 10676 10677 10678 10679 10680 10680 10681 10681 10681 10681 10680 10680 10679 10679 10679 10678 10678 10678 10677 10677 10677 10676 10675 10674 10673 10671 10670 10669 10667 10665 10662 10660 10658 10655 10653 10650 10647 10645 10643 10640 10638 10635 10632 10629 10626 10622 10617 10613 10608 10604 10599 10594 10589 10583 10577 10570
10552 10557 10563 10569 10576 10582 10587 10593 10600 10609 10613 10614 10617 10621 10625 10630 10634 10636 10639 10643 10646 10649 10652 10656 10659 10662 10664 10666 10668 10670 10672 10674 10675 10675 10675 10676 10676 10677 10677 10677 10676 10676 10675 10675 10675 10674 10674 10674 10674 10673 10673 10673 10672 10671 10669 10667 10666 10664 10663 10661 10658 10656 10654 10651 10648 10646 10643 10641 10639 10636 10634 10631 10628 10625 10621 10618 10613 10608 10604 10599 10595 10590 10585 10579 10572 10564
10544 10549 10554 10560 10567 10574 10581 10588 10597 10603 10605 10606 10610 10615 10620 10625 10628 10630 10633 10637 10640 10644 10648 10652 10654 10657 10660 10662 10664 10667 10670 10671 10671 10671 10671 10671 10671 10672 10672 10672 10672 10672 10672 10671 10671 10670 10670 10669 10669 10669 10669 10669 10668 10667 10665 10663 10662 10660 10658 10656 10653 10651 10649 10647 10644 10642 10640 10637 10635 10632 10630 10627 10623 10620 10617 10613 10609 10604 10600 10595 10591 10586 10580 10574 10567 10559
10536 10541 10546 10553 10560 10567 10574 10583 10590 10595 10597 10599 10604 10609 10615 10618 10621 10624 10627 10630 10635 10640 10644 10647 10649 10652 10655 10658 10661 10663 10666 10667 10667 10667 10667 10667 10667 10667 10668 10668 10668 10667 10667 10667 10666 10666 10665 10665 10665 10665 10665 10665 10664 10663 10661 10659 10657 10655 10653 10651 10648 10647 10645 10643 10641 10638 10636 10633 10631 10627 10624 10621 10619 10616 10612 10609 10605 10600 10596 10591 10587 10583 10577 10570 10563 10555
10528 10534 10540 10547 10554 10561 10567 10574 10581 10586 10590 10593 10597 10603 10608 10612 10615 10618 10621 10625 10630 10636 10640 10642 10645 10647 10650 10653 10655 10658 10660 10660 10661 10662 10663 10663 10663 10663 10663 10664 10664 10664 10663 10663 10662 10662 10661 10661 10661 10661 10660 10660 10659 10658 10656 10654 10652 10650 10648 10646 10644 10643 10641 10639 10637 10634 10632 10629 10626 10622 10619 10616 10614 10611 10607 10604 10600 10596 10591 10586 10582 10577 10572 10565 10558 10551
10520 10528 10534 10540 10547 10554 10560 10567 10573 10578 10583 10587 10591 10596 10602 10606 10609 10612 10616 10620 10624 10630 10635 10638 10641 10643 10645 10648 10650 10652 10653 10654 10656 10659 10659 10658 10659 10659 10659 10659 10660 10660 10660 10659 10659 10658 10657 10657 10656 10656 10655 10655 10654 10653 10651 10648 10647 10645 10644 10642 10640 10639 10637 10634 10632 10630 10627 10624 10621 10618 10615 10612 10609 10605 10602 10599 10595 10591 10586 10580 10575 10569 10564 10560 10554 10548
10513 10520 10526 10532 10540 10547 10554 10560 10567 10572 10576 10580 10585 10589 10594 10599 10602 10606 10610 10615 10619 10625 10630 10634 10637 10639 10641 10643 10646 10648 10649 10648 10650 10653 10656 10655 10655 10655 10655 10656 10656 10657 10657 10656 10655 10654 10653 10652 10652 10651 10650 10649 10649 10647 10646 10644 10642 10640 10639 10637 10636 10634 10632 10630 10627 10625 10622 10619 10617 10614 10611 10608 10605 10601 10597 10594 10589 10585 10579 10574 10568 10562 10557 10553 10549 10542
10504 10510 10517 10525 10533 10539 10546 10553 10560 10566 10569 10573 10577 10582 10586 10591 10595 10600 10605 10610 10615 10620 10625 10630 10633 10635 10636 10640 10642 10644 10645 10644 10644 10646 10648 10650 10652 10652 10652 10652 10654 10654 10654 10653 10651 10650 10649 10648 10648 10647 10646 10645 10644 10642 10641 10639 10637 10635 10634 10632 10631 10629 10626 10624 10622 10619 10617 10614 10612 10610 10607 10604 10601 10597 10593 10588 10583 10577 10571 10565 10558 10553 10548 10545 10541 10534
10495 10501 10509 10518 10525 10530 10537 10546 10553 10558 10561 10564 10569 10574 10579 10584 10589 10594 10600 10606 10611 10616 10621 10625 10628 10630 10633 10636 10639 10640 10641 10640 10640 10640 10642 10644 10648 10649 10648 10648 10650 10650 10650 10648 10646 10646 10645 10644 10643 10642 10641 10640 10639 10637 10636 10635 10633 10631 10629 10628 10626 10624 10621 10619 10617 10614 10612 10610 10607 10605 10603 10600 10597 10593 10588 10583 10577 10570 10563 10556 10549 10543 10537 10532 10528 10524